TimeMDT,TemperatureF,Dew PointF,Humidity,Sea Level PressureIn,VisibilityMPH,Wind Direction,Wind SpeedMPH,Gust SpeedMPH,PrecipitationIn,Events,Conditions,WindDirDegrees,DateUTC
12:53 AM,37.9,30.9,76,30.25,10.0,ESE,5.8,-,N/A,,Clear,110,2013-03-13 06:53:00
1:53 AM,36.0,30.0,79,30.25,10.0,ENE,6.9,-,N/A,,Clear,70,2013-03-13 07:53:00
2:53 AM,37.9,28.9,70,30.25,10.0,ESE,11.5,-,N/A,,Clear,120,2013-03-13 08:53:00
3:53 AM,35.1,28.0,76,30.26,10.0,ESE,6.9,-,N/A,,Clear,110,2013-03-13 09:53:00
4:53 AM,36.0,28.0,73,30.27,10.0,Calm,Calm,-,N/A,,Clear,0,2013-03-13 10:53:00
5:53 AM,36.0,28.0,73,30.30,10.0,SSE,5.8,-,N/A,,Clear,160,2013-03-13 11:53:00
6:53 AM,30.0,26.1,85,30.34,10.0,East,5.8,-,N/A,,Clear,90,2013-03-13 12:53:00
7:53 AM,33.1,28.9,85,30.37,10.0,ESE,8.1,-,N/A,,Clear,110,2013-03-13 13:53:00
8:53 AM,39.9,30.9,70,30.35,10.0,East,10.4,-,N/A,,Clear,100,2013-03-13 14:53:00
9:53 AM,45.0,30.9,58,30.36,10.0,SSE,6.9,-,N/A,,Clear,150,2013-03-13 15:53:00
10:53 AM,50.0,28.9,44,30.35,10.0,Variable,4.6,-,N/A,,Clear,0,2013-03-13 16:53:00
11:53 AM,52.0,28.0,40,30.35,10.0,South,4.6,-,N/A,,Clear,190,2013-03-13 17:53:00
12:53 PM,57.0,28.0,33,30.32,10.0,Calm,Calm,-,N/A,,Clear,0,2013-03-13 18:53:00
1:53 PM,60.1,26.1,27,30.30,10.0,SE,4.6,-,N/A,,Clear,130,2013-03-13 19:53:00
2:53 PM,62.1,24.1,23,30.26,10.0,WSW,6.9,-,N/A,,Clear,250,2013-03-13 20:53:00
3:53 PM,63.0,18.0,18,30.25,10.0,Calm,Calm,-,N/A,,Clear,0,2013-03-13 21:53:00
4:53 PM,63.0,19.0,18,30.23,10.0,Calm,Calm,-,N/A,,Clear,0,2013-03-13 22:53:00
5:53 PM,62.1,19.0,19,30.23,10.0,WNW,4.6,-,N/A,,Clear,290,2013-03-13 23:53:00
6:53 PM,57.9,23.0,26,30.26,10.0,West,4.6,-,N/A,,Clear,280,2013-03-14 00:53:00
7:53 PM,54.0,25.0,33,30.27,10.0,NNW,5.8,-,N/A,,Clear,330,2013-03-14 01:53:00
8:53 PM,48.0,28.9,48,30.27,10.0,NNE,3.5,-,N/A,,Clear,30,2013-03-14 02:53:00
9:53 PM,46.0,28.0,50,30.27,10.0,East,4.6,-,N/A,,Clear,100,2013-03-14 03:53:00
10:53 PM,45.0,27.0,49,30.28,10.0,East,4.6,-,N/A,,Clear,80,2013-03-14 04:53:00
11:53 PM,43.0,27.0,53,30.29,10.0,Calm,Calm,-,N/A,,Clear,0,2013-03-14 05:53:00